Location: Arcizac
(43.0933°N, 0.0112°E)
Time: 19:46:35
(UTC+00:00)

Cosmos 1867 - Pass Details

Date: 14 December 2019
Orbit: 777 x 799 km, 65.0° (Epoch: 18 January)

Event Time Altitude Azimuth Distance (km) Brightness Sun altitude
Rises 17:38:51 0° 328° (NNW) 3,313 7.0 -12.9°
Reaches altitude 10° 17:41:19 10° 331° (NNW) 2,378 6.2 -13.3°
Maximum altitude 17:46:45 65° 54° (NE) 872 3.5 -14.3°
Drops below altitude 10° 17:52:09 10° 136° (SE) 2,355 5.8 -15.2°
Sets 17:54:34 0° 139° (SE) 3,278 6.5 -15.6°
